User: anonymous   Login
Location: Lecco
(45.8566°N, 9.3977°E)
Time: 22:05:11
(UTC+02:00)
Language:

Tiros 1 despin weight - Orbit

View from above orbital plane
View from above orbital plane
View from above satellite
View from above satellite

Ground track
Ground track

The orbit data is extracted from the following two-line orbital elements,

1   115U 60002D   19233.19526681 -.00000088 +00000-0 +16713-4 0  9990
2   115 048.1665 282.7393 0034265 359.8233 000.2662 14.83463498147082
Epoch (UTC): 21 August 2019 04:41:11
Eccentricity: 0.0034265
inclination: 48.1665°
perigee height: 594 km
apogee height: 642 km
right ascension of ascending node: 282.7393°
argument of perigee: 359.8233°
revolutions per day: 14.83463498
mean anomaly at epoch: 0.2662°
orbit number at epoch: 14708

The dashed part of the orbit path shows where the satellite is in the earth's shadow,  

DLR